Time,TemperatureF,DewpointF,PressureIn,WindDirection,WindDirectionDegrees,WindSpeedMPH,WindSpeedGustMPH,Humidity,HourlyPrecipIn,Conditions,Clouds,dailyrainin,SoftwareType,DateUTC
2013-10-31 00:11:00,55.6,55.3,30.11,West,270,3.2,-999.0,99,-99.99,,,0.00,Acu-Link.com,2013-10-31 04:11:00,
2013-10-31 00:26:00,55.6,55.3,30.10,SSE,157,3.2,-999.0,99,-99.99,,,0.00,Acu-Link.com,2013-10-31 04:26:00,
2013-10-31 00:42:00,55.6,55.3,30.09,South,180,2.7,-999.0,99,-99.99,,,0.00,Acu-Link.com,2013-10-31 04:42:00,
2013-10-31 00:57:00,55.4,55.1,30.09,South,180,1.1,-999.0,99,-99.99,,,0.00,Acu-Link.com,2013-10-31 04:57:00,
2013-10-31 01:12:00,55.2,54.9,30.08,SE,135,0.0,-999.0,99,-99.99,,,0.00,Acu-Link.com,2013-10-31 05:12:00,
2013-10-31 01:27:00,55.0,54.7,30.09,ENE,67,0.0,-999.0,99,-99.99,,,0.00,Acu-Link.com,2013-10-31 05:27:00,
2013-10-31 01:42:00,54.9,54.6,30.10,South,180,1.7,-999.0,99,-99.99,,,0.00,Acu-Link.com,2013-10-31 05:42:00,
2013-10-31 01:57:00,54.5,54.2,30.09,ESE,112,0.0,-999.0,99,-99.99,,,0.00,Acu-Link.com,2013-10-31 05:57:00,
2013-10-31 02:12:00,54.0,53.7,30.09,SSE,157,0.0,-999.0,99,-99.99,,,0.00,Acu-Link.com,2013-10-31 06:12:00,
2013-10-31 02:28:00,53.4,53.1,30.08,SSE,157,2.2,-999.0,99,-99.99,,,0.00,Acu-Link.com,2013-10-31 06:28:00,
2013-10-31 02:43:00,54.1,53.8,30.07,ENE,67,3.2,-999.0,99,-99.99,,,0.00,Acu-Link.com,2013-10-31 06:43:00,
2013-10-31 02:58:00,54.7,54.4,30.06,ESE,112,2.7,-999.0,99,-99.99,,,0.00,Acu-Link.com,2013-10-31 06:58:00,
2013-10-31 03:13:00,54.9,54.6,30.06,ESE,112,2.7,-999.0,99,-99.99,,,0.00,Acu-Link.com,2013-10-31 07:13:00,
2013-10-31 03:28:00,55.0,54.7,30.06,ESE,112,3.7,-999.0,99,-99.99,,,0.00,Acu-Link.com,2013-10-31 07:28:00,
2013-10-31 03:43:00,55.2,54.9,30.05,SSE,157,2.7,-999.0,99,-99.99,,,0.00,Acu-Link.com,2013-10-31 07:43:00,
2013-10-31 03:58:00,55.6,55.3,30.05,ESE,112,2.7,-999.0,99,-99.99,,,0.00,Acu-Link.com,2013-10-31 07:58:00,
2013-10-31 04:14:00,55.8,55.5,30.04,ESE,112,3.2,-999.0,99,-99.99,,,0.00,Acu-Link.com,2013-10-31 08:14:00,
2013-10-31 04:29:00,55.8,55.5,30.04,SSE,157,2.7,-999.0,99,-99.99,,,0.00,Acu-Link.com,2013-10-31 08:29:00,
2013-10-31 04:44:00,55.8,55.5,30.03,ESE,112,3.7,-999.0,99,-99.99,,,0.00,Acu-Link.com,2013-10-31 08:44:00,
2013-10-31 04:59:00,55.9,55.6,30.02,ESE,112,2.7,-999.0,99,-99.99,,,0.00,Acu-Link.com,2013-10-31 08:59:00,
2013-10-31 05:14:00,55.9,55.6,30.02,ESE,112,2.7,-999.0,99,-99.99,,,0.00,Acu-Link.com,2013-10-31 09:14:00,
2013-10-31 05:29:00,56.3,56.0,30.02,SSE,157,1.1,-999.0,99,-99.99,,,0.00,Acu-Link.com,2013-10-31 09:29:00,
2013-10-31 05:44:00,56.8,56.5,30.02,SE,135,1.7,-999.0,99,-99.99,,,0.00,Acu-Link.com,2013-10-31 09:44:00,
2013-10-31 05:59:00,57.0,56.7,30.02,SE,135,2.7,-999.0,99,-99.99,,,0.00,Acu-Link.com,2013-10-31 09:59:00,
2013-10-31 06:15:00,57.4,57.1,30.03,West,270,2.2,-999.0,99,-99.99,,,0.00,Acu-Link.com,2013-10-31 10:15:00,
2013-10-31 06:30:00,57.6,57.3,30.02,SSE,157,3.2,-999.0,99,-99.99,,,0.00,Acu-Link.com,2013-10-31 10:30:00,
2013-10-31 06:45:00,57.4,57.1,30.02,WSW,247,0.0,-999.0,99,-99.99,,,0.00,Acu-Link.com,2013-10-31 10:45:00,
2013-10-31 07:00:00,57.2,56.9,30.02,ESE,112,2.2,-999.0,99,-99.99,,,0.00,Acu-Link.com,2013-10-31 11:00:00,
2013-10-31 07:15:00,57.6,57.3,30.01,SE,135,3.7,-999.0,99,-99.99,,,0.00,Acu-Link.com,2013-10-31 11:15:00,
2013-10-31 07:30:00,58.6,57.8,30.01,South,180,2.2,-999.0,97,-99.99,,,0.00,Acu-Link.com,2013-10-31 11:30:00,
2013-10-31 07:45:00,58.5,57.7,30.00,South,180,2.7,-999.0,97,-99.99,,,0.00,Acu-Link.com,2013-10-31 11:45:00,
2013-10-31 08:01:00,58.6,57.8,30.00,SSW,202,2.7,-999.0,97,-99.99,,,0.00,Acu-Link.com,2013-10-31 12:01:00,
2013-10-31 08:16:00,59.0,57.9,30.00,West,270,4.7,-999.0,96,-99.99,,,0.00,Acu-Link.com,2013-10-31 12:16:00,
2013-10-31 08:31:00,59.2,57.8,30.01,SSW,202,0.0,-999.0,95,-99.99,,,0.00,Acu-Link.com,2013-10-31 12:31:00,
2013-10-31 08:46:00,59.5,57.8,30.01,SSE,157,0.0,-999.0,94,-99.99,,,0.00,Acu-Link.com,2013-10-31 12:46:00,
2013-10-31 09:01:00,60.1,58.1,30.01,ESE,112,2.7,-999.0,93,-99.99,,,0.00,Acu-Link.com,2013-10-31 13:01:00,
2013-10-31 09:17:00,60.6,58.0,30.01,SSW,202,1.1,-999.0,91,-99.99,,,0.00,Acu-Link.com,2013-10-31 13:17:00,
2013-10-31 09:32:00,61.7,58.1,30.00,SSW,202,4.7,-999.0,88,-99.99,,,0.00,Acu-Link.com,2013-10-31 13:32:00,
2013-10-31 09:47:00,62.2,58.0,29.99,South,180,4.7,-999.0,86,-99.99,,,0.00,Acu-Link.com,2013-10-31 13:47:00,
2013-10-31 10:02:00,63.1,58.2,29.99,South,180,3.7,-999.0,84,-99.99,,,0.00,Acu-Link.com,2013-10-31 14:02:00,
2013-10-31 10:17:00,63.5,58.2,29.98,WSW,247,5.3,-999.0,83,-99.99,,,0.00,Acu-Link.com,2013-10-31 14:17:00,
2013-10-31 10:33:00,64.0,58.0,29.97,SSW,202,4.2,-999.0,81,-99.99,,,0.00,Acu-Link.com,2013-10-31 14:33:00,
2013-10-31 10:48:00,63.7,57.8,29.97,WSW,247,5.3,-999.0,81,-99.99,,,0.00,Acu-Link.com,2013-10-31 14:48:00,
2013-10-31 11:03:00,62.8,58.5,29.97,South,180,3.2,-999.0,86,-99.99,,,0.00,Acu-Link.com,2013-10-31 15:03:00,
2013-10-31 11:19:00,61.9,58.0,29.96,SSW,202,2.7,-999.0,87,-99.99,,,0.00,Acu-Link.com,2013-10-31 15:19:00,
2013-10-31 11:34:00,62.1,58.2,29.95,ENE,67,0.0,-999.0,87,-99.99,,,0.00,Acu-Link.com,2013-10-31 15:34:00,
2013-10-31 11:49:00,62.8,57.9,29.94,SSW,202,1.7,-999.0,84,-99.99,,,0.00,Acu-Link.com,2013-10-31 15:49:00,
2013-10-31 12:04:00,63.0,58.1,29.94,ESE,112,4.2,-999.0,84,-99.99,,,0.00,Acu-Link.com,2013-10-31 16:04:00,
2013-10-31 12:19:00,63.1,58.2,29.93,SSW,202,1.7,-999.0,84,-99.99,,,0.00,Acu-Link.com,2013-10-31 16:19:00,
2013-10-31 12:35:00,63.0,58.1,29.92,South,180,1.7,-999.0,84,-99.99,,,0.00,Acu-Link.com,2013-10-31 16:35:00,
2013-10-31 12:50:00,63.0,58.1,29.90,South,180,2.7,-999.0,84,-99.99,,,0.00,Acu-Link.com,2013-10-31 16:50:00,
2013-10-31 13:05:00,63.5,58.2,29.90,West,270,2.2,-999.0,83,-99.99,,,0.00,Acu-Link.com,2013-10-31 17:05:00,
2013-10-31 13:20:00,63.9,58.6,29.89,NNW,337,1.1,-999.0,83,-99.99,,,0.00,Acu-Link.com,2013-10-31 17:20:00,
2013-10-31 13:35:00,64.6,58.6,29.87,WNW,292,3.2,-999.0,81,-99.99,,,0.00,Acu-Link.com,2013-10-31 17:35:00,
2013-10-31 13:51:00,64.4,58.8,29.86,WNW,292,0.0,-999.0,82,-99.99,,,0.00,Acu-Link.com,2013-10-31 17:51:00,
2013-10-31 14:06:00,64.2,58.9,29.85,SE,135,2.7,-999.0,83,-99.99,,,0.00,Acu-Link.com,2013-10-31 18:06:00,
2013-10-31 14:21:00,64.4,58.8,29.84,SSW,202,3.7,-999.0,82,-99.99,,,0.00,Acu-Link.com,2013-10-31 18:21:00,
2013-10-31 14:36:00,64.4,58.4,29.82,SSW,202,1.1,-999.0,81,-99.99,,,0.00,Acu-Link.com,2013-10-31 18:36:00,
2013-10-31 14:52:00,64.0,58.4,29.83,South,180,0.0,-999.0,82,-99.99,,,0.00,Acu-Link.com,2013-10-31 18:52:00,
2013-10-31 15:07:00,63.1,58.8,29.81,SW,225,1.7,-999.0,86,-99.99,,,0.00,Acu-Link.com,2013-10-31 19:07:00,
2013-10-31 15:22:00,62.8,58.9,29.80,ESE,112,0.0,-999.0,87,-99.99,,,0.00,Acu-Link.com,2013-10-31 19:22:00,
2013-10-31 15:37:00,62.6,58.0,29.80,ESE,112,6.8,-999.0,85,-99.99,,,0.00,Acu-Link.com,2013-10-31 19:37:00,
2013-10-31 15:52:00,62.8,57.9,29.80,SE,135,1.1,-999.0,84,-99.99,,,0.00,Acu-Link.com,2013-10-31 19:52:00,
2013-10-31 16:08:00,63.0,57.8,29.80,East,90,0.0,-999.0,83,-99.99,,,0.00,Acu-Link.com,2013-10-31 20:08:00,
2013-10-31 16:23:00,63.0,57.4,29.80,SE,135,3.2,-999.0,82,-99.99,,,0.00,Acu-Link.com,2013-10-31 20:23:00,
2013-10-31 16:38:00,63.0,57.4,29.80,SSW,202,0.0,-999.0,82,-99.99,,,0.00,Acu-Link.com,2013-10-31 20:38:00,
2013-10-31 16:53:00,63.0,57.1,29.79,SSE,157,0.0,-999.0,81,-99.99,,,0.00,Acu-Link.com,2013-10-31 20:53:00,
2013-10-31 17:08:00,62.8,56.5,29.79,SE,135,1.7,-999.0,80,-99.99,,,0.00,Acu-Link.com,2013-10-31 21:08:00,
2013-10-31 17:24:00,62.4,56.5,29.79,ESE,112,2.7,-999.0,81,-99.99,,,0.00,Acu-Link.com,2013-10-31 21:24:00,
2013-10-31 17:39:00,62.2,56.3,29.80,South,180,0.0,-999.0,81,-99.99,,,0.00,Acu-Link.com,2013-10-31 21:39:00,
2013-10-31 17:54:00,62.4,55.1,29.80,SSE,157,6.3,-999.0,77,-99.99,,,0.00,Acu-Link.com,2013-10-31 21:54:00,
2013-10-31 18:09:00,61.3,55.1,29.81,WSW,247,4.2,-999.0,80,-99.99,,,0.00,Acu-Link.com,2013-10-31 22:09:00,
2013-10-31 18:24:00,59.9,55.1,29.81,West,270,3.7,-999.0,84,-99.99,,,0.00,Acu-Link.com,2013-10-31 22:24:00,
2013-10-31 18:40:00,57.4,56.0,29.80,SE,135,4.2,-999.0,95,-99.99,,,0.00,Acu-Link.com,2013-10-31 22:40:00,
2013-10-31 18:55:00,55.9,55.6,29.78,SSE,157,2.2,-999.0,99,-99.99,,,0.01,Acu-Link.com,2013-10-31 22:55:00,
2013-10-31 19:10:00,55.2,54.9,29.77,ESE,112,2.2,-999.0,99,-99.99,,,0.02,Acu-Link.com,2013-10-31 23:10:00,
2013-10-31 19:25:00,54.9,54.6,29.76,NNW,337,4.2,-999.0,99,-99.99,,,0.02,Acu-Link.com,2013-10-31 23:25:00,
2013-10-31 19:40:00,54.7,54.4,29.76,SE,135,1.7,-999.0,99,-99.99,,,0.02,Acu-Link.com,2013-10-31 23:40:00,
2013-10-31 19:55:00,55.2,54.9,29.75,SW,225,3.2,-999.0,99,-99.99,,,0.02,Acu-Link.com,2013-10-31 23:55:00,
2013-10-31 20:11:00,55.2,54.9,29.75,North,0,2.7,-999.0,99,-99.99,,,0.02,Acu-Link.com,2013-11-01 00:11:00,
2013-10-31 20:26:00,55.2,54.9,29.74,SE,135,3.2,-999.0,99,-99.99,,,0.02,Acu-Link.com,2013-11-01 00:26:00,
2013-10-31 20:41:00,55.6,55.3,29.73,NNE,22,2.7,-999.0,99,-99.99,,,0.02,Acu-Link.com,2013-11-01 00:41:00,
2013-10-31 20:56:00,55.8,55.5,29.70,WNW,292,2.7,-999.0,99,-99.99,,,0.02,Acu-Link.com,2013-11-01 00:56:00,
2013-10-31 21:11:00,55.9,55.3,29.69,NE,45,1.7,-999.0,98,-99.99,,,0.02,Acu-Link.com,2013-11-01 01:11:00,
2013-10-31 21:26:00,56.3,55.7,29.68,ENE,67,4.2,-999.0,98,-99.99,,,0.02,Acu-Link.com,2013-11-01 01:26:00,
2013-10-31 21:42:00,55.9,55.6,29.68,ESE,112,1.1,-999.0,99,-99.99,,,0.02,Acu-Link.com,2013-11-01 01:42:00,
2013-10-31 21:57:00,55.9,55.6,29.67,South,180,7.3,-999.0,99,-99.99,,,0.02,Acu-Link.com,2013-11-01 01:57:00,
2013-10-31 22:12:00,55.6,55.3,29.67,NW,315,1.1,-999.0,99,-99.99,,,0.03,Acu-Link.com,2013-11-01 02:12:00,
2013-10-31 22:27:00,55.8,55.5,29.66,South,180,3.2,-999.0,99,-99.99,,,0.03,Acu-Link.com,2013-11-01 02:27:00,
2013-10-31 22:42:00,55.9,55.6,29.64,East,90,3.7,-999.0,99,-99.99,,,0.03,Acu-Link.com,2013-11-01 02:42:00,
2013-10-31 22:58:00,56.1,55.8,29.62,WSW,247,4.7,-999.0,99,-99.99,,,0.03,Acu-Link.com,2013-11-01 02:58:00,
2013-10-31 23:13:00,56.5,56.2,29.61,SSE,157,4.7,-999.0,99,-99.99,,,0.03,Acu-Link.com,2013-11-01 03:13:00,
2013-10-31 23:28:00,56.5,56.2,29.60,NW,315,2.2,-999.0,99,-99.99,,,0.03,Acu-Link.com,2013-11-01 03:28:00,
2013-10-31 23:43:00,56.5,56.2,29.58,SSW,202,3.7,-999.0,99,-99.99,,,0.03,Acu-Link.com,2013-11-01 03:43:00,
2013-10-31 23:58:00,56.3,56.0,29.58,SSW,202,1.7,-999.0,99,-99.99,,,0.03,Acu-Link.com,2013-11-01 03:58:00,